Find Starlink 36494

NORAD ID: 67331 Int'l Des: 2026-002 Owner: SPXS Country: US Constellation: starlink operational
LEOCIRCULAR

リアルタイム位置

3D地球を読み込み中...

Starlink 36494について

説明を読み込み中...

次回通過

Passes for default location (London). Set your location on the main map for personalized predictions.

高度履歴

Loading altitude history...

軌道要素

1 67331U 26002AC 26106.71242280 .00017246 00000-0 63432-3 0 9992
2 67331 43.0026 110.5528 0001445 273.1742 86.8944 15.27602415 17054
Epoch: Apr 16, 2026 • Age: 20 hours

現在のステータス

高度 493.0 km
速度 7.62 km/s
衛星直下点 -37.29°S, 60.26°W
打ち上げ日 Jan 4, 2026
運用期間 0.2 years
タイプ internet

技術仕様

分類 Payload
質量 575.00 kg
乾燥質量 530.00 kg
総質量 575.00 kg
長さ 0.30 m
直径 4.10 m
スパン 29.00 m
形状 Box + pan
製造者 SPXS
バスタイプ Starlink V2MO
フェーズステータス In Orbit
所有者/国 SPXS/US

Most Searched